TimeCDT,TemperatureF,Dew PointF,Humidity,Sea Level PressureIn,VisibilityMPH,Wind Direction,Wind SpeedMPH,Gust SpeedMPH,PrecipitationIn,Events,Conditions,WindDirDegrees,DateUTC
12:54 AM,64.9,52.0,63,30.03,10.0,SSE,6.9,-,N/A,,Clear,150,2013-09-28 05:54:00
1:54 AM,63.0,51.1,65,30.03,10.0,SSE,4.6,-,N/A,,Clear,150,2013-09-28 06:54:00
2:54 AM,62.1,52.0,70,30.02,10.0,SE,4.6,-,N/A,,Clear,140,2013-09-28 07:54:00
3:54 AM,61.0,52.0,72,30.02,10.0,SE,4.6,-,N/A,,Clear,140,2013-09-28 08:54:00
4:54 AM,60.1,52.0,75,30.02,10.0,SSE,6.9,-,N/A,,Clear,150,2013-09-28 09:54:00
5:54 AM,60.1,53.1,78,30.02,10.0,SSE,5.8,-,N/A,,Scattered Clouds,150,2013-09-28 10:54:00
6:54 AM,60.1,53.1,78,30.04,10.0,SSE,3.5,-,N/A,,Mostly Cloudy,150,2013-09-28 11:54:00
7:54 AM,62.1,54.0,75,30.04,10.0,ESE,4.6,-,N/A,,Partly Cloudy,120,2013-09-28 12:54:00
8:54 AM,66.0,55.9,70,30.03,10.0,SSE,11.5,-,N/A,,Partly Cloudy,160,2013-09-28 13:54:00
9:54 AM,72.0,57.9,61,30.02,10.0,South,11.5,-,N/A,,Clear,180,2013-09-28 14:54:00
10:54 AM,78.1,60.1,54,29.99,10.0,South,13.8,24.2,N/A,,Clear,190,2013-09-28 15:54:00
11:54 AM,82.9,60.1,46,29.96,10.0,South,20.7,29.9,N/A,,Clear,190,2013-09-28 16:54:00
12:54 PM,84.0,60.1,44,29.95,10.0,SSW,18.4,31.1,N/A,,Scattered Clouds,200,2013-09-28 17:54:00
1:54 PM,82.0,59.0,45,29.94,10.0,SSW,17.3,25.3,N/A,,Overcast,200,2013-09-28 18:54:00
2:54 PM,81.0,60.1,49,29.93,10.0,SSW,16.1,25.3,N/A,,Overcast,200,2013-09-28 19:54:00
3:54 PM,80.1,60.1,50,29.92,10.0,SSW,17.3,-,N/A,,Overcast,200,2013-09-28 20:54:00
4:54 PM,78.1,62.1,58,29.91,10.0,SSW,10.4,-,0.00,Rain,Light Rain,210,2013-09-28 21:54:00
5:54 PM,77.0,62.1,60,29.92,10.0,WSW,6.9,-,0.00,,Overcast,240,2013-09-28 22:54:00
6:54 PM,75.0,63.0,66,29.92,10.0,West,4.6,-,N/A,,Overcast,260,2013-09-28 23:54:00
7:54 PM,72.0,66.0,81,29.93,6.0,West,5.8,-,0.01,Rain,Light Rain,270,2013-09-29 00:54:00
8:54 PM,70.0,66.9,90,29.94,6.0,WNW,5.8,-,0.01,Rain,Light Rain,300,2013-09-29 01:54:00
9:25 PM,70.0,66.9,90,29.95,2.0,WSW,5.8,-,0.03,Rain,Rain,240,2013-09-29 02:25:00
9:30 PM,70.0,66.9,90,29.95,1.2,SW,6.9,-,0.07,Rain,Heavy Rain,230,2013-09-29 02:30:00
9:48 PM,66.2,64.4,94,29.96,2.0,NW,11.5,-,0.27,Rain,Heavy Rain,310,2013-09-29 02:48:00
9:52 PM,66.2,62.6,88,29.96,3.0,WNW,8.1,-,0.28,Rain,Rain,300,2013-09-29 02:52:00
9:54 PM,66.0,63.0,90,29.96,3.0,NW,8.1,-,0.28,Rain,Rain,310,2013-09-29 02:54:00
10:24 PM,63.0,61.0,93,29.98,2.0,NW,6.9,-,0.07,Rain,Rain,310,2013-09-29 03:24:00
10:54 PM,61.0,59.0,93,29.98,3.0,Variable,6.9,-,0.18,Rain,Rain,0,2013-09-29 03:54:00
11:01 PM,61.0,59.0,93,29.99,2.5,NW,9.2,-,0.02,Rain,Rain,310,2013-09-29 04:01:00
11:13 PM,61.0,59.0,93,30.00,3.0,NW,8.1,-,0.04,Rain,Light Rain,320,2013-09-29 04:13:00
11:21 PM,60.1,57.9,93,30.00,4.0,NW,10.4,-,0.05,Rain,Light Rain,310,2013-09-29 04:21:00
11:28 PM,60.1,57.0,90,30.00,6.0,NW,8.1,19.6,0.06,Rain,Light Rain,310,2013-09-29 04:28:00
11:44 PM,59.0,55.9,90,30.00,10.0,Variable,6.9,-,0.06,,Overcast,0,2013-09-29 04:44:00
11:52 PM,59.0,55.4,88,30.00,10.0,NNW,6.9,-,0.06,,Overcast,330,2013-09-29 04:52:00
11:54 PM,59.0,55.9,90,30.00,10.0,NNW,8.1,-,0.06,,Overcast,330,2013-09-29 04:54:00